星链-2546 (STARLINK-2546 )

导读 | 星芒AI

STARLINK-2546 是 SpaceX Starlink 项目中的一颗低轨通信卫星,属于第二代 Starlink 卫星(Gen2)批次。该卫星于2024年发射,旨在为全球用户提供高速、低延迟的互联网服务。它运行在约550公里高的近地轨道,配备先进通信设备和激光链路,以提升网络性能和卫星间通信能力。作为 Starlink 卫星群的一部分,STARLINK-2546 有助于扩大覆盖范围,提高连接稳定性,特别是在偏远和网络基础设施薄弱的地区。

基本信息
目录编号:
48296
目录名称:
STARLINK-2546
国际标识:
2021-036W
轨道中心:
EARTH
卫星名称:
星链-2546
卫星全名:
星链-2546 (STARLINK-2546 )
卫星状态:
已陨落 最后检测时间 2025-01-08
发射日期:
2021-04-29 UTC
国别 :
美国 (US)
星等 :
--
轨道信息
数据来源 国际轨道数据
星历时间: 2025-01-08T17:25:54+0800
轨道信息已过期343天
半长轴: 6558.606km
偏心率: 0.0004879
轨道倾角: 53.052°
近地点辐角 268.975°
升交点赤经 172.672°
平近点角 198.703°
近地点: 177.271km
远地点: 183.671km
周期: 88.100分钟
每日圈数: 16.345022
详细信息
固有亮度:
5
最大亮度:
2.5
卫星平台:
Starlink V1.0
覆盖范围:
全球
运营商:
太空探索技术公司
运营商所在国:
美国
制造商(研发单位):
太空探索技术公司
制造商所在国:
美国
使用方式:
暂无
卫星简介
星链(Starlink)计划是由太空探索技术公司(SpaceX)提出的一个巨型低轨卫星互联网星座项目,计划在2019年至2024年间在太空搭建由约1.2万颗卫星组成的“星链”网络,其中1584颗将部署在地球上空550千米处的近地轨道,并从2020年开始工作。该卫星仍在工作。